Time,TemperatureF,DewpointF,PressureIn,WindDirection,WindDirectionDegrees,WindSpeedMPH,WindSpeedGustMPH,Humidity,HourlyPrecipIn,Conditions,Clouds,dailyrainin,SoftwareType,DateUTC
2013-05-27 00:02:00,67.0,39.0,30.01,North,350,4.0,-999.0,36,-99.99,,,-99.99,,2013-05-27 00:02:00,
2013-05-27 00:11:00,67.0,39.0,30.01,North,350,4.0,-999.0,36,-99.99,,,-99.99,,2013-05-27 00:11:00,
2013-05-27 00:22:00,66.0,39.0,30.01,North,355,2.0,-999.0,37,-99.99,,,-99.99,,2013-05-27 00:22:00,
2013-05-27 00:32:00,65.0,39.0,30.01,North,355,0.0,-999.0,38,-99.99,,,-99.99,,2013-05-27 00:32:00,
2013-05-27 00:42:00,65.0,39.0,30.01,North,355,0.0,-999.0,38,-99.99,,,-99.99,,2013-05-27 00:42:00,
2013-05-27 00:52:00,64.0,41.0,30.02,North,355,0.0,-999.0,43,-99.99,,,-99.99,,2013-05-27 00:52:00,
2013-05-27 01:01:00,62.0,42.0,30.03,North,355,0.0,-999.0,48,-99.99,,,-99.99,,2013-05-27 01:01:00,
2013-05-27 01:11:00,62.0,42.0,30.03,North,355,0.0,-999.0,48,-99.99,,,-99.99,,2013-05-27 01:11:00,
2013-05-27 01:22:00,61.0,43.0,30.04,North,355,0.0,-999.0,52,-99.99,,,-99.99,,2013-05-27 01:22:00,
2013-05-27 01:32:00,59.0,43.0,30.05,North,355,0.0,-999.0,55,-99.99,,,-99.99,,2013-05-27 01:32:00,
2013-05-27 01:42:00,58.0,42.0,30.05,North,355,0.0,-999.0,56,-99.99,,,-99.99,,2013-05-27 01:42:00,
2013-05-27 01:52:00,58.0,42.0,30.05,North,355,0.0,-999.0,56,-99.99,,,-99.99,,2013-05-27 01:52:00,
2013-05-27 02:02:00,57.0,44.0,30.06,North,355,0.0,-999.0,61,-99.99,,,-99.99,,2013-05-27 02:02:00,
2013-05-27 02:11:00,57.0,44.0,30.06,North,355,0.0,-999.0,61,-99.99,,,-99.99,,2013-05-27 02:11:00,
2013-05-27 02:22:00,56.0,44.0,30.06,North,355,0.0,-999.0,64,-99.99,,,-99.99,,2013-05-27 02:22:00,
2013-05-27 02:32:00,55.0,43.0,30.07,North,355,0.0,-999.0,65,-99.99,,,-99.99,,2013-05-27 02:32:00,
2013-05-27 02:42:00,55.0,43.0,30.07,North,355,0.0,-999.0,65,-99.99,,,-99.99,,2013-05-27 02:42:00,
2013-05-27 02:52:00,54.0,43.0,30.08,North,355,0.0,-999.0,67,-99.99,,,-99.99,,2013-05-27 02:52:00,
2013-05-27 03:02:00,53.0,41.0,30.08,North,355,0.0,-999.0,64,-99.99,,,-99.99,,2013-05-27 03:02:00,
2013-05-27 03:11:00,53.0,41.0,30.08,North,355,0.0,-999.0,64,-99.99,,,-99.99,,2013-05-27 03:11:00,
2013-05-27 03:21:00,55.0,42.0,30.09,North,355,0.0,-999.0,62,-99.99,,,-99.99,,2013-05-27 03:21:00,
2013-05-27 03:33:00,54.0,43.0,30.10,North,355,0.0,-999.0,65,-99.99,,,-99.99,,2013-05-27 03:33:00,
2013-05-27 03:43:00,54.0,43.0,30.10,North,355,0.0,-999.0,65,-99.99,,,-99.99,,2013-05-27 03:43:00,
2013-05-27 03:53:00,53.0,41.0,30.10,North,355,0.0,-999.0,64,-99.99,,,-99.99,,2013-05-27 03:53:00,
2013-05-27 04:02:00,52.0,41.0,30.10,North,355,0.0,-999.0,65,-99.99,,,-99.99,,2013-05-27 04:02:00,
2013-05-27 04:12:00,52.0,41.0,30.10,North,355,0.0,-999.0,65,-99.99,,,-99.99,,2013-05-27 04:12:00,
2013-05-27 04:23:00,51.0,40.0,30.11,North,355,0.0,-999.0,67,-99.99,,,-99.99,,2013-05-27 04:23:00,
2013-05-27 04:33:00,51.0,41.0,30.11,North,355,0.0,-999.0,69,-99.99,,,-99.99,,2013-05-27 04:33:00,
2013-05-27 04:43:00,50.0,41.0,30.11,North,355,0.0,-999.0,70,-99.99,,,-99.99,,2013-05-27 04:43:00,
2013-05-27 04:53:00,50.0,41.0,30.11,North,355,0.0,-999.0,70,-99.99,,,-99.99,,2013-05-27 04:53:00,
2013-05-27 05:02:00,49.0,41.0,30.11,North,355,0.0,-999.0,75,-99.99,,,-99.99,,2013-05-27 05:02:00,
2013-05-27 05:12:00,49.0,41.0,30.11,North,355,0.0,-999.0,75,-99.99,,,-99.99,,2013-05-27 05:12:00,
2013-05-27 05:22:00,48.0,41.0,30.12,North,355,0.0,-999.0,76,-99.99,,,-99.99,,2013-05-27 05:22:00,
2013-05-27 05:32:00,48.0,41.0,30.12,North,355,0.0,-999.0,77,-99.99,,,-99.99,,2013-05-27 05:32:00,
2013-05-27 05:42:00,48.0,41.0,30.12,North,355,0.0,-999.0,77,-99.99,,,-99.99,,2013-05-27 05:42:00,
2013-05-27 05:52:00,47.0,41.0,30.12,North,355,0.0,-999.0,80,-99.99,,,-99.99,,2013-05-27 05:52:00,
2013-05-27 06:02:00,47.0,41.0,30.12,North,355,0.0,-999.0,81,-99.99,,,-99.99,,2013-05-27 06:02:00,
2013-05-27 06:11:00,47.0,41.0,30.12,North,355,0.0,-999.0,81,-99.99,,,-99.99,,2013-05-27 06:11:00,
2013-05-27 06:22:00,46.0,41.0,30.12,North,355,0.0,-999.0,83,-99.99,,,-99.99,,2013-05-27 06:22:00,
2013-05-27 06:32:00,46.0,41.0,30.12,North,355,0.0,-999.0,83,-99.99,,,-99.99,,2013-05-27 06:32:00,
2013-05-27 06:42:00,46.0,41.0,30.12,North,355,0.0,-999.0,83,-99.99,,,-99.99,,2013-05-27 06:42:00,
2013-05-27 06:52:00,46.0,41.0,30.13,North,355,0.0,-999.0,83,-99.99,,,-99.99,,2013-05-27 06:52:00,
2013-05-27 07:02:00,45.0,41.0,30.13,North,355,0.0,-999.0,85,-99.99,,,-99.99,,2013-05-27 07:02:00,
2013-05-27 07:11:00,45.0,41.0,30.14,North,355,0.0,-999.0,85,-99.99,,,-99.99,,2013-05-27 07:11:00,
2013-05-27 07:21:00,45.0,41.0,30.14,North,355,0.0,-999.0,85,-99.99,,,-99.99,,2013-05-27 07:21:00,
2013-05-27 07:32:00,45.0,41.0,30.14,North,355,0.0,-999.0,85,-99.99,,,-99.99,,2013-05-27 07:32:00,
2013-05-27 07:42:00,45.0,41.0,30.14,North,355,0.0,-999.0,85,-99.99,,,-99.99,,2013-05-27 07:42:00,
2013-05-27 07:53:00,45.0,41.0,30.13,North,355,0.0,-999.0,85,-99.99,,,-99.99,,2013-05-27 07:53:00,
2013-05-27 08:02:00,44.0,40.0,30.13,North,355,0.0,-999.0,86,-99.99,,,-99.99,,2013-05-27 08:02:00,
2013-05-27 08:11:00,44.0,40.0,30.13,North,355,0.0,-999.0,86,-99.99,,,-99.99,,2013-05-27 08:11:00,
2013-05-27 08:22:00,44.0,40.0,30.12,North,355,0.0,-999.0,87,-99.99,,,-99.99,,2013-05-27 08:22:00,
2013-05-27 08:33:00,43.0,40.0,30.12,North,355,0.0,-999.0,89,-99.99,,,-99.99,,2013-05-27 08:33:00,
2013-05-27 08:42:00,43.0,40.0,30.12,North,355,0.0,-999.0,89,-99.99,,,-99.99,,2013-05-27 08:42:00,
2013-05-27 08:52:00,43.0,40.0,30.12,North,355,0.0,-999.0,89,-99.99,,,-99.99,,2013-05-27 08:52:00,
2013-05-27 09:02:00,43.0,40.0,30.13,North,355,0.0,-999.0,89,-99.99,,,-99.99,,2013-05-27 09:02:00,
2013-05-27 09:11:00,43.0,40.0,30.14,North,355,0.0,-999.0,89,-99.99,,,-99.99,,2013-05-27 09:11:00,
2013-05-27 09:22:00,43.0,40.0,30.14,North,355,0.0,-999.0,89,-99.99,,,-99.99,,2013-05-27 09:22:00,
2013-05-27 09:33:00,42.0,39.0,30.14,North,355,0.0,-999.0,90,-99.99,,,-99.99,,2013-05-27 09:33:00,
2013-05-27 09:42:00,42.0,39.0,30.14,North,355,0.0,-999.0,90,-99.99,,,-99.99,,2013-05-27 09:42:00,
2013-05-27 09:53:00,42.0,39.0,30.14,North,355,0.0,-999.0,90,-99.99,,,-99.99,,2013-05-27 09:53:00,
2013-05-27 10:03:00,41.0,39.0,30.14,North,355,0.0,-999.0,91,-99.99,,,-99.99,,2013-05-27 10:03:00,
2013-05-27 10:12:00,41.0,39.0,30.14,North,355,0.0,-999.0,91,-99.99,,,-99.99,,2013-05-27 10:12:00,
2013-05-27 10:23:00,41.0,39.0,30.14,North,355,0.0,-999.0,92,-99.99,,,-99.99,,2013-05-27 10:23:00,
2013-05-27 10:32:00,41.0,39.0,30.15,North,355,0.0,-999.0,93,-99.99,,,-99.99,,2013-05-27 10:32:00,
2013-05-27 10:42:00,41.0,39.0,30.15,North,355,0.0,-999.0,93,-99.99,,,-99.99,,2013-05-27 10:42:00,
2013-05-27 10:52:00,42.0,40.0,30.15,North,355,0.0,-999.0,93,-99.99,,,-99.99,,2013-05-27 10:52:00,
2013-05-27 11:02:00,43.0,41.0,30.15,North,355,0.0,-999.0,93,-99.99,,,-99.99,,2013-05-27 11:02:00,
2013-05-27 11:11:00,43.0,41.0,30.15,North,355,0.0,-999.0,93,-99.99,,,-99.99,,2013-05-27 11:11:00,
2013-05-27 11:22:00,45.0,42.0,30.15,North,355,0.0,-999.0,90,-99.99,,,-99.99,,2013-05-27 11:22:00,
2013-05-27 11:32:00,47.0,43.0,30.15,North,355,0.0,-999.0,85,-99.99,,,-99.99,,2013-05-27 11:32:00,
2013-05-27 11:42:00,47.0,43.0,30.15,North,355,0.0,-999.0,85,-99.99,,,-99.99,,2013-05-27 11:42:00,
2013-05-27 11:52:00,50.0,43.0,30.15,North,355,0.0,-999.0,78,-99.99,,,-99.99,,2013-05-27 11:52:00,
2013-05-27 12:01:00,53.0,44.0,30.16,North,355,0.0,-999.0,71,-99.99,,,-99.99,,2013-05-27 12:01:00,
2013-05-27 12:11:00,53.0,44.0,30.16,North,355,0.0,-999.0,71,-99.99,,,-99.99,,2013-05-27 12:11:00,
2013-05-27 12:22:00,55.0,43.0,30.16,NNW,340,1.0,-999.0,63,-99.99,,,-99.99,,2013-05-27 12:22:00,
2013-05-27 12:32:00,57.0,41.0,30.16,WNW,299,1.0,-999.0,56,-99.99,,,-99.99,,2013-05-27 12:32:00,
2013-05-27 12:42:00,57.0,41.0,30.16,WNW,299,1.0,-999.0,56,-99.99,,,-99.99,,2013-05-27 12:42:00,
2013-05-27 12:52:00,59.0,42.0,30.16,WNW,298,0.0,-999.0,54,-99.99,,,-99.99,,2013-05-27 12:52:00,
2013-05-27 13:01:00,60.0,43.0,30.16,WNW,284,0.0,-999.0,53,-99.99,,,-99.99,,2013-05-27 13:01:00,
2013-05-27 13:11:00,60.0,43.0,30.16,WNW,284,0.0,-999.0,53,-99.99,,,-99.99,,2013-05-27 13:11:00,
2013-05-27 13:22:00,61.0,42.0,30.15,WSW,247,2.0,-999.0,49,-99.99,,,-99.99,,2013-05-27 13:22:00,
2013-05-27 13:32:00,62.0,41.0,30.15,West,269,2.0,-999.0,46,-99.99,,,-99.99,,2013-05-27 13:32:00,
2013-05-27 13:42:00,62.0,41.0,30.15,West,269,2.0,-999.0,46,-99.99,,,-99.99,,2013-05-27 13:42:00,
2013-05-27 13:53:00,63.0,41.0,30.15,WSW,256,3.0,-999.0,44,-99.99,,,-99.99,,2013-05-27 13:53:00,
2013-05-27 14:02:00,64.0,40.0,30.15,North,355,3.0,-999.0,41,-99.99,,,-99.99,,2013-05-27 14:02:00,
2013-05-27 14:11:00,64.0,40.0,30.15,North,355,3.0,-999.0,41,-99.99,,,-99.99,,2013-05-27 14:11:00,
2013-05-27 14:22:00,64.0,40.0,30.15,West,279,4.0,-999.0,41,-99.99,,,-99.99,,2013-05-27 14:22:00,
2013-05-27 14:32:00,65.0,40.0,30.15,West,276,4.0,-999.0,40,-99.99,,,-99.99,,2013-05-27 14:32:00,
2013-05-27 14:42:00,65.0,40.0,30.15,West,276,4.0,-999.0,40,-99.99,,,-99.99,,2013-05-27 14:42:00,
2013-05-27 14:52:00,66.0,42.0,30.15,WSW,249,1.0,-999.0,42,-99.99,,,-99.99,,2013-05-27 14:52:00,
2013-05-27 15:01:00,66.0,40.0,30.15,SW,229,3.0,-999.0,39,-99.99,,,-99.99,,2013-05-27 15:01:00,
2013-05-27 15:11:00,67.0,41.0,30.15,NNW,337,3.0,-999.0,39,-99.99,,,-99.99,,2013-05-27 15:11:00,
2013-05-27 15:22:00,67.0,41.0,30.15,NNW,337,3.0,-999.0,39,-99.99,,,-99.99,,2013-05-27 15:22:00,
2013-05-27 15:33:00,67.0,42.0,30.15,WNW,293,5.0,-999.0,40,-99.99,,,-99.99,,2013-05-27 15:33:00,
2013-05-27 15:43:00,67.0,42.0,30.15,WNW,293,5.0,-999.0,40,-99.99,,,-99.99,,2013-05-27 15:43:00,
2013-05-27 15:53:00,67.0,39.0,30.14,West,277,3.0,-999.0,36,-99.99,,,-99.99,,2013-05-27 15:53:00,
2013-05-27 16:03:00,67.0,41.0,30.14,WNW,293,5.0,-999.0,38,-99.99,,,-99.99,,2013-05-27 16:03:00,
2013-05-27 16:12:00,67.0,41.0,30.14,WNW,293,5.0,-999.0,38,-99.99,,,-99.99,,2013-05-27 16:12:00,
2013-05-27 16:23:00,68.0,43.0,30.14,West,261,4.0,-999.0,40,-99.99,,,-99.99,,2013-05-27 16:23:00,
2013-05-27 16:33:00,68.0,42.0,30.14,West,279,5.0,-999.0,39,-99.99,,,-99.99,,2013-05-27 16:33:00,
2013-05-27 16:42:00,68.0,42.0,30.14,West,279,5.0,-999.0,39,-99.99,,,-99.99,,2013-05-27 16:42:00,
2013-05-27 16:53:00,69.0,44.0,30.13,NNW,348,5.0,-999.0,40,-99.99,,,-99.99,,2013-05-27 16:53:00,
2013-05-27 17:02:00,69.0,42.0,30.12,West,279,4.0,-999.0,38,-99.99,,,-99.99,,2013-05-27 17:02:00,
2013-05-27 17:12:00,70.0,43.0,30.11,WNW,284,4.0,-999.0,38,-99.99,,,-99.99,,2013-05-27 17:12:00,
2013-05-27 17:22:00,70.0,43.0,30.11,WNW,284,4.0,-999.0,38,-99.99,,,-99.99,,2013-05-27 17:22:00,
2013-05-27 17:32:00,69.0,43.0,30.11,West,280,6.0,-999.0,39,-99.99,,,-99.99,,2013-05-27 17:32:00,
2013-05-27 17:43:00,69.0,43.0,30.11,West,280,6.0,-999.0,39,-99.99,,,-99.99,,2013-05-27 17:43:00,
2013-05-27 17:52:00,70.0,42.0,30.10,West,265,5.0,-999.0,36,-99.99,,,-99.99,,2013-05-27 17:52:00,
2013-05-27 18:02:00,70.0,43.0,30.10,WSW,250,3.0,-999.0,37,-99.99,,,-99.99,,2013-05-27 18:02:00,
2013-05-27 18:11:00,70.0,43.0,30.10,WSW,250,3.0,-999.0,37,-99.99,,,-99.99,,2013-05-27 18:11:00,
2013-05-27 18:22:00,70.0,40.0,30.09,SW,235,6.0,-999.0,34,-99.99,,,-99.99,,2013-05-27 18:22:00,
2013-05-27 18:32:00,71.0,41.0,30.08,NW,308,4.0,-999.0,34,-99.99,,,-99.99,,2013-05-27 18:32:00,
2013-05-27 18:42:00,71.0,41.0,30.08,NW,308,4.0,-999.0,34,-99.99,,,-99.99,,2013-05-27 18:42:00,
2013-05-27 18:52:00,71.0,43.0,30.08,SW,233,4.0,-999.0,37,-99.99,,,-99.99,,2013-05-27 18:52:00,
2013-05-27 19:01:00,72.0,43.0,30.08,West,277,5.0,-999.0,35,-99.99,,,-99.99,,2013-05-27 19:01:00,
2013-05-27 19:11:00,72.0,43.0,30.08,West,277,5.0,-999.0,35,-99.99,,,-99.99,,2013-05-27 19:11:00,
2013-05-27 19:22:00,71.0,42.0,30.07,SSW,213,6.0,-999.0,35,-99.99,,,-99.99,,2013-05-27 19:22:00,
2013-05-27 19:32:00,71.0,44.0,30.07,NW,314,6.0,-999.0,38,-99.99,,,-99.99,,2013-05-27 19:32:00,
2013-05-27 19:42:00,71.0,44.0,30.07,NW,314,6.0,-999.0,38,-99.99,,,-99.99,,2013-05-27 19:42:00,
2013-05-27 19:52:00,72.0,43.0,30.07,SW,225,4.0,-999.0,35,-99.99,,,-99.99,,2013-05-27 19:52:00,
2013-05-27 20:01:00,73.0,44.0,30.07,West,265,5.0,-999.0,35,-99.99,,,-99.99,,2013-05-27 20:01:00,
2013-05-27 20:11:00,73.0,44.0,30.07,West,265,5.0,-999.0,35,-99.99,,,-99.99,,2013-05-27 20:11:00,
2013-05-27 20:22:00,73.0,42.0,30.06,West,266,5.0,-999.0,33,-99.99,,,-99.99,,2013-05-27 20:22:00,
2013-05-27 20:32:00,73.0,44.0,30.05,NNW,327,3.0,-999.0,35,-99.99,,,-99.99,,2013-05-27 20:32:00,
2013-05-27 20:42:00,72.0,44.0,30.05,West,262,5.0,-999.0,36,-99.99,,,-99.99,,2013-05-27 20:42:00,
2013-05-27 20:53:00,72.0,44.0,30.05,West,262,5.0,-999.0,36,-99.99,,,-99.99,,2013-05-27 20:53:00,
2013-05-27 21:01:00,72.0,45.0,30.05,WNW,297,4.0,-999.0,38,-99.99,,,-99.99,,2013-05-27 21:01:00,
2013-05-27 21:12:00,72.0,44.0,30.05,WSW,247,5.0,-999.0,37,-99.99,,,-99.99,,2013-05-27 21:12:00,
2013-05-27 21:21:00,72.0,44.0,30.05,WSW,247,5.0,-999.0,37,-99.99,,,-99.99,,2013-05-27 21:21:00,
2013-05-27 21:33:00,72.0,44.0,30.05,West,276,5.0,-999.0,36,-99.99,,,-99.99,,2013-05-27 21:33:00,
2013-05-27 21:43:00,72.0,44.0,30.05,WNW,293,4.0,-999.0,36,-99.99,,,-99.99,,2013-05-27 21:43:00,
2013-05-27 21:53:00,72.0,44.0,30.05,WNW,293,4.0,-999.0,36,-99.99,,,-99.99,,2013-05-27 21:53:00,
2013-05-27 22:02:00,71.0,43.0,30.06,SW,223,6.0,-999.0,36,-99.99,,,-99.99,,2013-05-27 22:02:00,
2013-05-27 22:13:00,71.0,43.0,30.05,WSW,254,4.0,-999.0,37,-99.99,,,-99.99,,2013-05-27 22:13:00,
2013-05-27 22:23:00,71.0,43.0,30.05,WSW,254,4.0,-999.0,37,-99.99,,,-99.99,,2013-05-27 22:23:00,
2013-05-27 22:33:00,71.0,43.0,30.05,West,263,4.0,-999.0,37,-99.99,,,-99.99,,2013-05-27 22:33:00,
2013-05-27 22:42:00,71.0,43.0,30.05,West,263,4.0,-999.0,37,-99.99,,,-99.99,,2013-05-27 22:42:00,
2013-05-27 22:53:00,71.0,44.0,30.04,West,267,2.0,-999.0,38,-99.99,,,-99.99,,2013-05-27 22:53:00,
2013-05-27 23:02:00,71.0,45.0,30.05,West,259,2.0,-999.0,39,-99.99,,,-99.99,,2013-05-27 23:02:00,
2013-05-27 23:12:00,71.0,45.0,30.05,West,259,2.0,-999.0,39,-99.99,,,-99.99,,2013-05-27 23:12:00,
2013-05-27 23:22:00,71.0,45.0,30.04,West,259,1.0,-999.0,39,-99.99,,,-99.99,,2013-05-27 23:22:00,
2013-05-27 23:32:00,71.0,47.0,30.04,West,259,0.0,-999.0,42,-99.99,,,-99.99,,2013-05-27 23:32:00,
2013-05-27 23:42:00,71.0,47.0,30.04,West,259,0.0,-999.0,42,-99.99,,,-99.99,,2013-05-27 23:42:00,
2013-05-27 23:52:00,70.0,46.0,30.05,West,259,0.0,-999.0,42,-99.99,,,-99.99,,2013-05-27 23:52:00,